XNO66K EGPH-EGGW

Flight info

Callsign XNO66K
Flight time 1h 10m
Altitude 33000
Route GOSAM P600 FENIK L612 NAVSO DCT AKOMU DCT VAMEB UL612 LISTO
Aircraft A320/M-SDE3FGHIRWY/LB1

Departure

Time 2026-04-24 14:12
Airport Edinburgh Airport (EGPH)

Arrival

Time 2026-04-24 15:23
Airport London Luton Airport (EGGW)
Time Latitude Longitude Altitude Speed Heading
2026-04-24 13:22 55.94657 -3.36615 117 ft 0 kts 89°
2026-04-24 14:00 55.94657 -3.36616 116 ft 2 kts 89°
2026-04-24 14:00 55.94656 -3.36661 115 ft 4 kts 89°
2026-04-24 14:00 55.94656 -3.36700 114 ft 4 kts 74°
2026-04-24 14:00 55.94642 -3.36729 112 ft 4 kts 14°
2026-04-24 14:01 55.94621 -3.36734 113 ft 0 kts 359°
2026-04-24 14:04 55.94623 -3.36734 112 ft 2 kts 359°
2026-04-24 14:04 55.94672 -3.36735 114 ft 11 kts 360°
2026-04-24 14:04 55.94762 -3.36757 113 ft 14 kts 338°
2026-04-24 14:05 55.94864 -3.36783 116 ft 16 kts 350°
2026-04-24 14:05 55.94915 -3.36924 115 ft 16 kts 246°
2026-04-24 14:05 55.94862 -3.37085 115 ft 14 kts 239°
2026-04-24 14:05 55.94814 -3.37228 114 ft 13 kts 239°
2026-04-24 14:06 55.94770 -3.37356 113 ft 11 kts 239°
2026-04-24 14:06 55.94728 -3.37482 111 ft 17 kts 238°
2026-04-24 14:06 55.94637 -3.37747 115 ft 30 kts 239°
2026-04-24 14:06 55.94533 -3.38054 114 ft 29 kts 239°
2026-04-24 14:07 55.94453 -3.38290 114 ft 19 kts 239°
2026-04-24 14:07 55.94389 -3.38478 114 ft 17 kts 239°
2026-04-24 14:07 55.94333 -3.38644 114 ft 14 kts 239°
2026-04-24 14:07 55.94322 -3.38676 115 ft 0 kts 239°
2026-04-24 14:08 55.94320 -3.38682 114 ft 3 kts 239°
2026-04-24 14:08 55.94293 -3.38762 113 ft 7 kts 239°
2026-04-24 14:08 55.94283 -3.38839 116 ft 6 kts 284°
2026-04-24 14:09 55.94307 -3.38887 114 ft 5 kts 325°
2026-04-24 14:09 55.94316 -3.38898 116 ft 0 kts 327°
2026-04-24 14:10 55.94319 -3.38901 112 ft 3 kts 327°
2026-04-24 14:10 55.94379 -3.38966 114 ft 11 kts 334°
2026-04-24 14:10 55.94438 -3.38905 114 ft 11 kts 57°
2026-04-24 14:10 55.94457 -3.38850 114 ft 0 kts 58°
2026-04-24 14:11 55.94512 -3.38689 113 ft 37 kts 58°
2026-04-24 14:12 55.94775 -3.37915 115 ft 105 kts 58°
2026-04-24 14:12 55.95256 -3.36508 113 ft 158 kts 58°
2026-04-24 14:12 55.95855 -3.34696 484 ft 177 kts 59°
2026-04-24 14:12 55.96559 -3.32949 1259 ft 175 kts 45°
2026-04-24 14:13 55.97452 -3.31490 2037 ft 177 kts 39°
2026-04-24 14:13 55.98446 -3.29997 2465 ft 197 kts 38°
2026-04-24 14:13 55.99597 -3.28433 2788 ft 218 kts 25°
2026-04-24 14:13 56.01123 -3.28041 3154 ft 234 kts 346°
2026-04-24 14:14 56.02551 -3.29405 3857 ft 237 kts 312°
2026-04-24 14:14 56.03277 -3.32010 4666 ft 239 kts 276°
2026-04-24 14:14 56.02649 -3.38079 5888 ft 264 kts 256°
2026-04-24 14:15 56.02176 -3.41268 5993 ft 266 kts 256°
2026-04-24 14:15 56.01699 -3.44466 6006 ft 266 kts 256°
2026-04-24 14:15 56.01228 -3.47663 6009 ft 266 kts 256°
2026-04-24 14:15 56.00765 -3.50862 6010 ft 266 kts 256°
2026-04-24 14:16 56.00306 -3.54065 6015 ft 266 kts 256°
2026-04-24 14:16 55.99847 -3.57274 6008 ft 266 kts 256°
2026-04-24 14:16 55.99391 -3.60477 6003 ft 266 kts 256°
2026-04-24 14:17 55.98476 -3.66879 6003 ft 266 kts 256°
2026-04-24 14:17 55.98017 -3.70081 6012 ft 268 kts 256°
2026-04-24 14:17 55.97080 -3.76570 7720 ft 272 kts 256°
2026-04-24 14:18 55.96606 -3.79853 8604 ft 275 kts 257°
2026-04-24 14:18 55.96126 -3.83181 9495 ft 279 kts 257°
2026-04-24 14:18 55.95638 -3.86547 10341 ft 282 kts 257°
2026-04-24 14:18 55.95130 -3.90044 10742 ft 303 kts 257°
2026-04-24 14:19 55.94772 -3.92513 10906 ft 318 kts 256°
2026-04-24 14:19 55.93931 -3.97850 11168 ft 350 kts 250°
2026-04-24 14:19 55.92749 -4.01741 11633 ft 363 kts 235°
2026-04-24 14:19 55.91020 -4.05078 12298 ft 371 kts 221°
2026-04-24 14:20 55.88913 -4.07792 13001 ft 376 kts 216°
2026-04-24 14:20 55.86753 -4.10446 13722 ft 379 kts 216°
2026-04-24 14:20 55.84567 -4.13118 14371 ft 383 kts 216°
2026-04-24 14:20 55.82357 -4.15808 14961 ft 386 kts 216°
2026-04-24 14:21 55.80129 -4.18517 15579 ft 390 kts 216°
2026-04-24 14:21 55.77875 -4.21230 16167 ft 393 kts 213°
2026-04-24 14:21 55.75407 -4.23374 16732 ft 398 kts 200°
2026-04-24 14:21 55.72709 -4.24560 17301 ft 402 kts 188°
2026-04-24 14:22 55.69904 -4.24736 17869 ft 406 kts 176°
2026-04-24 14:22 55.67109 -4.23889 18431 ft 410 kts 165°
2026-04-24 14:22 55.61912 -4.19745 19742 ft 403 kts 151°
2026-04-24 14:23 55.59524 -4.17378 21004 ft 384 kts 151°
2026-04-24 14:23 55.57246 -4.15147 22316 ft 364 kts 151°
2026-04-24 14:23 55.55056 -4.13016 23294 ft 357 kts 151°
2026-04-24 14:23 55.52879 -4.10902 23930 ft 357 kts 151°
2026-04-24 14:24 55.50697 -4.08787 24393 ft 359 kts 151°
2026-04-24 14:24 55.48486 -4.06646 24689 ft 368 kts 151°
2026-04-24 14:24 55.46206 -4.04436 24812 ft 380 kts 151°
2026-04-24 14:24 55.43850 -4.02153 24934 ft 392 kts 150°
2026-04-24 14:25 55.42251 -4.00603 25013 ft 400 kts 150°
2026-04-24 14:25 55.38935 -3.97383 25175 ft 414 kts 150°
2026-04-24 14:25 55.36383 -3.94909 25310 ft 424 kts 150°
2026-04-24 14:25 55.33773 -3.92388 25424 ft 433 kts 150°
2026-04-24 14:26 55.31108 -3.89819 25534 ft 441 kts 150°
2026-04-24 14:26 55.28393 -3.87207 25675 ft 449 kts 150°
2026-04-24 14:26 55.25672 -3.84597 25846 ft 455 kts 150°
2026-04-24 14:26 55.22845 -3.81892 26098 ft 458 kts 150°
2026-04-24 14:27 55.20058 -3.79301 26388 ft 461 kts 152°
2026-04-24 14:27 55.17183 -3.76765 26673 ft 464 kts 153°
2026-04-24 14:27 55.14274 -3.74297 26952 ft 466 kts 153°
2026-04-24 14:27 55.11298 -3.71814 27240 ft 469 kts 153°
2026-04-24 14:28 55.08351 -3.69354 27526 ft 471 kts 153°
2026-04-24 14:28 55.05396 -3.66868 27847 ft 472 kts 153°
2026-04-24 14:28 55.02486 -3.64398 28245 ft 471 kts 153°
2026-04-24 14:28 54.99507 -3.61854 28673 ft 470 kts 152°
2026-04-24 14:29 54.96612 -3.59374 29058 ft 470 kts 152°
2026-04-24 14:29 54.93681 -3.56866 29451 ft 470 kts 152°
2026-04-24 14:29 54.90744 -3.54358 29813 ft 470 kts 152°
2026-04-24 14:29 54.87807 -3.51861 30209 ft 470 kts 152°
2026-04-24 14:30 54.85820 -3.50179 30446 ft 470 kts 152°
2026-04-24 14:30 54.81925 -3.46895 30885 ft 470 kts 153°
2026-04-24 14:30 54.78988 -3.44427 31224 ft 469 kts 153°
2026-04-24 14:30 54.76056 -3.41961 31564 ft 468 kts 153°
2026-04-24 14:31 54.73128 -3.39497 31904 ft 468 kts 153°
2026-04-24 14:31 54.70204 -3.37037 32248 ft 467 kts 153°
2026-04-24 14:31 54.67282 -3.34586 32561 ft 467 kts 153°
2026-04-24 14:31 54.64359 -3.32140 32886 ft 467 kts 153°
2026-04-24 14:32 54.61435 -3.29696 33201 ft 467 kts 153°
2026-04-24 14:32 54.58510 -3.27256 33308 ft 469 kts 153°
2026-04-24 14:32 54.55564 -3.24810 33315 ft 470 kts 153°
2026-04-24 14:33 54.49662 -3.19919 33315 ft 472 kts 153°
2026-04-24 14:33 54.43738 -3.14999 33313 ft 474 kts 152°
2026-04-24 14:34 54.37784 -3.10079 33313 ft 475 kts 153°
2026-04-24 14:34 54.31815 -3.05183 33310 ft 475 kts 153°
2026-04-24 14:35 54.25847 -3.00293 33311 ft 475 kts 153°
2026-04-24 14:35 54.19884 -2.95411 33305 ft 475 kts 153°
2026-04-24 14:36 54.13888 -2.90625 33295 ft 476 kts 155°
2026-04-24 14:36 54.07788 -2.86190 33292 ft 477 kts 156°
2026-04-24 14:37 54.01652 -2.81873 33287 ft 477 kts 156°
2026-04-24 14:37 53.95533 -2.77491 33289 ft 477 kts 156°
2026-04-24 14:38 53.89419 -2.73059 33283 ft 478 kts 156°
2026-04-24 14:38 53.84333 -2.69365 33281 ft 479 kts 156°
2026-04-24 14:39 53.78201 -2.64934 33286 ft 479 kts 157°
2026-04-24 14:39 53.72060 -2.60536 33290 ft 480 kts 157°
2026-04-24 14:40 53.65917 -2.56160 33319 ft 479 kts 158°
2026-04-24 14:40 53.59777 -2.51821 33317 ft 478 kts 158°
2026-04-24 14:41 53.53652 -2.47486 33309 ft 477 kts 158°
2026-04-24 14:41 53.47529 -2.43153 33303 ft 477 kts 158°
2026-04-24 14:42 53.41408 -2.38840 33295 ft 477 kts 158°
2026-04-24 14:42 53.35283 -2.34539 33292 ft 477 kts 158°
2026-04-24 14:43 53.29162 -2.30248 33291 ft 477 kts 158°
2026-04-24 14:43 53.23075 -2.25998 33272 ft 477 kts 159°
2026-04-24 14:44 53.16944 -2.21722 33275 ft 478 kts 159°
2026-04-24 14:44 53.11193 -2.16089 33282 ft 483 kts 145°
2026-04-24 14:45 53.05777 -2.09462 33289 ft 484 kts 145°
2026-04-24 14:45 53.00340 -2.02862 33291 ft 484 kts 145°
2026-04-24 14:46 52.94893 -1.96281 33291 ft 485 kts 147°
2026-04-24 14:46 52.89432 -1.89691 33285 ft 486 kts 147°
2026-04-24 14:47 52.83967 -1.83115 33288 ft 486 kts 147°
2026-04-24 14:47 52.78524 -1.76582 33296 ft 487 kts 147°
2026-04-24 14:48 52.72898 -1.70416 33261 ft 484 kts 156°
2026-04-24 14:48 52.66878 -1.65249 33253 ft 481 kts 156°
2026-04-24 14:48 52.64001 -1.62771 33182 ft 465 kts 156°
2026-04-24 14:49 52.61178 -1.60338 33040 ft 451 kts 156°
2026-04-24 14:49 52.58434 -1.57974 32839 ft 440 kts 156°
2026-04-24 14:49 52.55740 -1.55661 32457 ft 434 kts 157°
2026-04-24 14:49 52.53072 -1.53381 32018 ft 430 kts 157°
2026-04-24 14:50 52.50426 -1.51127 31594 ft 426 kts 157°
2026-04-24 14:50 52.47809 -1.48902 31187 ft 422 kts 158°
2026-04-24 14:50 52.45208 -1.46696 30739 ft 419 kts 158°
2026-04-24 14:50 52.42626 -1.44508 30219 ft 417 kts 158°
2026-04-24 14:51 52.39995 -1.42287 28728 ft 435 kts 157°
2026-04-24 14:51 52.37268 -1.39995 26799 ft 448 kts 156°
2026-04-24 14:51 52.34460 -1.37628 24821 ft 458 kts 154°
2026-04-24 14:51 52.31618 -1.35221 22947 ft 461 kts 153°
2026-04-24 14:52 52.28795 -1.32812 21382 ft 453 kts 152°
2026-04-24 14:52 52.26065 -1.30356 19967 ft 444 kts 151°
2026-04-24 14:52 52.23420 -1.27854 18967 ft 433 kts 150°
2026-04-24 14:52 52.20842 -1.25351 18704 ft 431 kts 150°
2026-04-24 14:53 52.18277 -1.22861 18376 ft 427 kts 150°
2026-04-24 14:53 52.15740 -1.20423 18009 ft 416 kts 150°
2026-04-24 14:53 52.13292 -1.18101 17866 ft 397 kts 150°
2026-04-24 14:53 52.10996 -1.15941 17707 ft 367 kts 151°
2026-04-24 14:54 52.08864 -1.13952 17576 ft 340 kts 151°
2026-04-24 14:54 52.06882 -1.12110 17311 ft 320 kts 151°
2026-04-24 14:54 52.04983 -1.10312 16708 ft 313 kts 147°
2026-04-24 14:54 52.03304 -1.08076 16245 ft 312 kts 135°
2026-04-24 14:55 52.02372 -1.06304 15986 ft 312 kts 127°
2026-04-24 14:55 52.00993 -1.02206 15186 ft 310 kts 111°
2026-04-24 14:55 52.00486 -0.98843 14926 ft 307 kts 99°
2026-04-24 14:55 52.00400 -0.95382 14694 ft 309 kts 87°
2026-04-24 14:56 52.00638 -0.91914 14466 ft 309 kts 84°
2026-04-24 14:56 52.00887 -0.88458 14243 ft 309 kts 84°
2026-04-24 14:56 52.01128 -0.85045 14000 ft 307 kts 84°
2026-04-24 14:56 52.01368 -0.81612 13757 ft 306 kts 84°
2026-04-24 14:57 52.01610 -0.78188 13527 ft 305 kts 84°
2026-04-24 14:57 52.02072 -0.74840 13297 ft 305 kts 71°
2026-04-24 14:57 52.03049 -0.71785 13071 ft 305 kts 55°
2026-04-24 14:57 52.04452 -0.69198 12842 ft 306 kts 46°
2026-04-24 14:58 52.05946 -0.66742 12630 ft 305 kts 46°
2026-04-24 14:58 52.07432 -0.64286 12406 ft 304 kts 46°
2026-04-24 14:58 52.08911 -0.61837 12183 ft 303 kts 46°
2026-04-24 14:58 52.10383 -0.59387 11971 ft 302 kts 46°
2026-04-24 14:59 52.11848 -0.56947 11744 ft 301 kts 46°
2026-04-24 14:59 52.13310 -0.54509 11525 ft 301 kts 46°
2026-04-24 14:59 52.14767 -0.52081 11306 ft 299 kts 46°
2026-04-24 14:59 52.16217 -0.49660 11085 ft 298 kts 46°
2026-04-24 15:00 52.17661 -0.47241 10868 ft 297 kts 46°
2026-04-24 15:00 52.19086 -0.44852 10715 ft 289 kts 46°
2026-04-24 15:00 52.20500 -0.42604 10592 ft 280 kts 38°
2026-04-24 15:00 52.22171 -0.41114 10473 ft 270 kts 18°
2026-04-24 15:01 52.23992 -0.40606 10297 ft 264 kts 359°
2026-04-24 15:01 52.25812 -0.40663 10117 ft 261 kts 358°
2026-04-24 15:01 52.27623 -0.40716 9930 ft 260 kts 359°
2026-04-24 15:01 52.29417 -0.40897 9747 ft 256 kts 346°
2026-04-24 15:02 52.31021 -0.42046 9524 ft 252 kts 322°
2026-04-24 15:02 52.32165 -0.44164 9265 ft 250 kts 297°
2026-04-24 15:02 52.32656 -0.46860 9007 ft 249 kts 273°
2026-04-24 15:02 52.32425 -0.49637 8756 ft 248 kts 249°
2026-04-24 15:03 52.31521 -0.52014 8495 ft 248 kts 224°
2026-04-24 15:03 52.30102 -0.53571 8240 ft 247 kts 200°
2026-04-24 15:03 52.28421 -0.54047 7993 ft 247 kts 178°
2026-04-24 15:03 52.26708 -0.53982 7746 ft 245 kts 177°
2026-04-24 15:04 52.25006 -0.53917 7500 ft 244 kts 177°
2026-04-24 15:04 52.23312 -0.53857 7256 ft 243 kts 178°
2026-04-24 15:04 52.21623 -0.53803 7072 ft 242 kts 177°
2026-04-24 15:04 52.19936 -0.53749 6948 ft 243 kts 178°
2026-04-24 15:05 52.18246 -0.53692 6826 ft 243 kts 177°
2026-04-24 15:05 52.16579 -0.53636 6710 ft 243 kts 178°
2026-04-24 15:05 52.14892 -0.53583 6580 ft 242 kts 177°
2026-04-24 15:05 52.13187 -0.53527 6450 ft 242 kts 178°
2026-04-24 15:06 52.11507 -0.53475 6325 ft 241 kts 177°
2026-04-24 15:06 52.09832 -0.53420 6181 ft 241 kts 178°
2026-04-24 15:06 52.08159 -0.53362 6060 ft 240 kts 177°
2026-04-24 15:06 52.06489 -0.53305 5931 ft 240 kts 177°
2026-04-24 15:07 52.04823 -0.53250 5671 ft 239 kts 176°
2026-04-24 15:07 52.03170 -0.53197 5279 ft 242 kts 176°
2026-04-24 15:07 52.01486 -0.53143 4872 ft 243 kts 175°
2026-04-24 15:07 51.99813 -0.53091 4644 ft 238 kts 178°
2026-04-24 15:08 51.98159 -0.53040 4262 ft 238 kts 175°
2026-04-24 15:08 51.96500 -0.52987 3949 ft 238 kts 176°
2026-04-24 15:08 51.94851 -0.52934 3683 ft 236 kts 176°
2026-04-24 15:08 51.93210 -0.52883 3371 ft 235 kts 176°
2026-04-24 15:09 51.91605 -0.52833 3227 ft 226 kts 175°
2026-04-24 15:09 51.90063 -0.52786 3088 ft 218 kts 175°
2026-04-24 15:09 51.88573 -0.52740 2952 ft 211 kts 176°
2026-04-24 15:09 51.87139 -0.52599 2827 ft 202 kts 161°
2026-04-24 15:10 51.85993 -0.51484 2701 ft 189 kts 128°
2026-04-24 15:10 51.85454 -0.49650 2604 ft 177 kts 97°
2026-04-24 15:10 51.85562 -0.47764 2453 ft 163 kts 75°
2026-04-24 15:10 51.85860 -0.46068 2229 ft 151 kts 75°
2026-04-24 15:11 51.86135 -0.44502 2102 ft 139 kts 75°
2026-04-24 15:11 51.86424 -0.42985 1725 ft 147 kts 72°
2026-04-24 15:11 51.86727 -0.41342 1147 ft 156 kts 73°
2026-04-24 15:11 51.86990 -0.39673 841 ft 147 kts 73°
2026-04-24 15:12 51.87194 -0.38155 649 ft 131 kts 75°
2026-04-24 15:12 51.87756 -0.35045 1835 ft 147 kts 75°
2026-04-24 15:12 51.88023 -0.33434 2536 ft 155 kts 76°
2026-04-24 15:13 51.88321 -0.31647 2796 ft 175 kts 75°
2026-04-24 15:13 51.88654 -0.29645 2969 ft 192 kts 76°
2026-04-24 15:13 51.89008 -0.27504 2998 ft 202 kts 76°
2026-04-24 15:13 51.89372 -0.25278 3002 ft 206 kts 76°
2026-04-24 15:14 51.90003 -0.23200 3010 ft 210 kts 48°
2026-04-24 15:14 51.91275 -0.22044 3007 ft 216 kts 16°
2026-04-24 15:14 51.92781 -0.21861 3012 ft 221 kts 353°
2026-04-24 15:14 51.94183 -0.22878 3014 ft 225 kts 325°
2026-04-24 15:15 51.95247 -0.24672 3006 ft 227 kts 298°
2026-04-24 15:15 51.95593 -0.27145 3017 ft 229 kts 269°
2026-04-24 15:15 51.95494 -0.29761 3006 ft 229 kts 264°
2026-04-24 15:15 51.95328 -0.32362 3014 ft 233 kts 263°
2026-04-24 15:16 51.95153 -0.34964 3011 ft 232 kts 264°
2026-04-24 15:16 51.94976 -0.37557 2997 ft 231 kts 263°
2026-04-24 15:16 51.94798 -0.40177 3008 ft 234 kts 263°
2026-04-24 15:16 51.94620 -0.42756 3011 ft 233 kts 263°
2026-04-24 15:17 51.94442 -0.45358 3006 ft 231 kts 263°
2026-04-24 15:17 51.94264 -0.47950 3014 ft 232 kts 263°
2026-04-24 15:17 51.94088 -0.50542 3001 ft 231 kts 263°
2026-04-24 15:17 51.93908 -0.53115 3006 ft 231 kts 263°
2026-04-24 15:18 51.93722 -0.55697 2999 ft 230 kts 263°
2026-04-24 15:18 51.93535 -0.58277 2998 ft 232 kts 263°
2026-04-24 15:18 51.93150 -0.60784 2999 ft 228 kts 242°
2026-04-24 15:18 51.92148 -0.62732 2989 ft 224 kts 213°
2026-04-24 15:19 51.90760 -0.63709 2576 ft 216 kts 184°
2026-04-24 15:19 51.89301 -0.63556 2090 ft 205 kts 158°
2026-04-24 15:19 51.88073 -0.62468 1999 ft 203 kts 135°
2026-04-24 15:19 51.87225 -0.60712 1992 ft 189 kts 114°
2026-04-24 15:20 51.86664 -0.58877 1992 ft 177 kts 114°
2026-04-24 15:20 51.86110 -0.57083 2005 ft 178 kts 113°
2026-04-24 15:20 51.85557 -0.55296 2033 ft 179 kts 114°
2026-04-24 15:20 51.85053 -0.53446 2019 ft 179 kts 103°
2026-04-24 15:21 51.84959 -0.51470 2021 ft 175 kts 83°
2026-04-24 15:21 51.85235 -0.49643 1919 ft 160 kts 73°
2026-04-24 15:21 51.85535 -0.47935 1763 ft 157 kts 74°
2026-04-24 15:21 51.85828 -0.46265 1571 ft 153 kts 73°
2026-04-24 15:22 51.86114 -0.44624 1372 ft 153 kts 75°
2026-04-24 15:22 51.86410 -0.42924 1168 ft 166 kts 75°
2026-04-24 15:22 51.86723 -0.41121 937 ft 165 kts 76°
2026-04-24 15:23 51.87352 -0.37490 523 ft 159 kts 75°
2026-04-24 15:23 51.87601 -0.36038 515 ft 19 kts 74°
2026-04-24 15:23 51.87682 -0.35929 516 ft 17 kts 351°
2026-04-24 15:24 51.87777 -0.36109 518 ft 0 kts 257°
2026-04-24 15:25 51.87761 -0.36207 518 ft 9 kts 254°
2026-04-24 15:26 51.87719 -0.36448 519 ft 4 kts 254°
2026-04-24 15:27 51.87712 -0.36492 520 ft 0 kts 255°
2026-04-24 15:27 51.87669 -0.36741 523 ft 13 kts 254°
2026-04-24 15:28 51.88085 -0.37167 509 ft 16 kts 340°
2026-04-24 15:29 51.88210 -0.37236 517 ft 5 kts 338°
2026-04-24 15:30 51.88211 -0.37419 516 ft 11 kts 251°
2026-04-24 15:31 51.88190 -0.37635 520 ft 0 kts 243°
2026-04-24 15:32 51.88140 -0.37705 523 ft 10 kts 230°
2026-04-24 15:33 51.88177 -0.37549 501 ft 5 kts 199°
2026-04-24 15:33 51.88159 -0.37560 510 ft 0 kts 201°